Location: *
(50.3440°N, 18.6237°E)
Time: 16:41:45
(UTC+00:00)

Cosmos 2369 Rocket - Pass Details

Date: 30 November 2020
Orbit: 829 x 852 km, 71.0° (Epoch: 17 January)

Event Time Altitude Azimuth Distance (km) Brightness Sun altitude
Rises 16:21:49 0° 331° (NNW) 3,427 5.5 -14.7°
Reaches altitude 10° 16:24:17 10° 333° (NNW) 2,486 4.8 -15.0°
Maximum altitude 16:30:00 75° 59° (ENE) 880 2.1 -15.9°
Drops below altitude 10° 16:35:39 10° 145° (SE) 2,455 4.4 -16.8°
Sets 16:38:05 0° 147° (SSE) 3,383 5.1 -17.2°
